FDX81 KLAX-YSSY

Flight info

Callsign FDX81
Flight time N/A
Altitude 38000
Route SUMMR2 DINTY DCT 3221N12615W 3152N12737W 3058N12957W 2856N13403W 2643N13822W 2541N14017W 2232N14522W 2143N14632W/N0493F340 1836N15020W 1635N15219W 1358N15445W 1103N15804W 0727N16245W 0420N16651W 0114N17053W/N0490F360 0212S17514W 0342S17700W 0500S17827W 0703S17914E 0840S17725E 1126S17424E 1509S17012E/N0484F380 1846S16608E 2136S16306E 2142S16300E 2322S16119E 2510S15938E 2941S15557E DCT IFFEY DCT RIKNI N774 MARLN
Aircraft B77L/H-SDE1E2E3FGHIJ2J3J4J5M1RWXY/LB1D1

Departure

Time 2026-05-04 18:10
Airport Los Angeles International Airport (KLAX)

Arrival

Time N/A
Airport Sydney Kingsford Smith International Airport (YSSY)
Time Latitude Longitude Altitude Speed Heading
2026-05-04 17:47 33.93396 -118.38214 130 ft 0 kts 223°
2026-05-04 18:03 33.93406 -118.38202 127 ft 3 kts 237°
2026-05-04 18:03 33.93414 -118.38182 124 ft 3 kts 258°
2026-05-04 18:03 33.93416 -118.38161 124 ft 3 kts 277°
2026-05-04 18:04 33.93411 -118.38139 124 ft 3 kts 297°
2026-05-04 18:04 33.93401 -118.38120 124 ft 3 kts 317°
2026-05-04 18:04 33.93394 -118.38113 124 ft 0 kts 328°
2026-05-04 18:07 33.93395 -118.38113 124 ft 1 kts 328°
2026-05-04 18:08 33.93420 -118.38121 126 ft 7 kts 351°
2026-05-04 18:08 33.93487 -118.38125 125 ft 13 kts
2026-05-04 18:08 33.93581 -118.38124 126 ft 13 kts
2026-05-04 18:08 33.93622 -118.38204 125 ft 14 kts 265°
2026-05-04 18:09 33.93729 -118.38355 125 ft 14 kts 264°
2026-05-04 18:09 33.93616 -118.39467 126 ft 132 kts 263°
2026-05-04 18:10 33.93481 -118.40811 143 ft 187 kts 263°
2026-05-04 18:10 33.93365 -118.42380 669 ft 184 kts 264°
2026-05-04 18:10 33.93242 -118.43935 1217 ft 194 kts 263°
2026-05-04 18:10 33.93048 -118.45572 1676 ft 197 kts 259°
2026-05-04 18:11 33.92882 -118.47233 2020 ft 209 kts 267°
2026-05-04 18:11 33.92821 -118.49088 1931 ft 233 kts 268°
2026-05-04 18:11 33.92778 -118.51092 2155 ft 241 kts 265°
2026-05-04 18:11 33.92619 -118.53099 2660 ft 242 kts 263°
2026-05-04 18:12 33.92432 -118.55153 3005 ft 251 kts 264°
2026-05-04 18:12 33.92252 -118.57212 3558 ft 250 kts 264°
2026-05-04 18:12 33.92072 -118.59330 3958 ft 256 kts 264°
2026-05-04 18:12 33.91891 -118.61475 4446 ft 260 kts 264°
2026-05-04 18:13 33.91736 -118.63644 4969 ft 261 kts 268°
2026-05-04 18:13 33.91712 -118.65842 5467 ft 262 kts 270°
2026-05-04 18:13 33.91729 -118.70268 6448 ft 267 kts 270°
2026-05-04 18:14 33.91732 -118.72506 6920 ft 268 kts 270°
2026-05-04 18:14 33.91730 -118.74769 7305 ft 273 kts 270°
2026-05-04 18:14 33.91723 -118.77076 7725 ft 277 kts 270°
2026-05-04 18:15 33.91703 -118.81726 8697 ft 280 kts 269°
2026-05-04 18:15 33.91762 -118.86428 9721 ft 282 kts 271°
2026-05-04 18:15 33.91844 -118.88793 10158 ft 285 kts 271°
2026-05-04 18:16 33.91926 -118.91240 10289 ft 299 kts 271°
2026-05-04 18:16 33.92007 -118.93805 10418 ft 314 kts 271°
2026-05-04 18:16 33.92087 -118.96492 10546 ft 329 kts 271°
2026-05-04 18:17 33.92032 -119.02186 10958 ft 350 kts 255°
2026-05-04 18:17 33.91157 -119.04932 11307 ft 354 kts 245°
2026-05-04 18:17 33.89105 -119.10376 12336 ft 360 kts 246°
2026-05-04 18:18 33.88085 -119.13134 12883 ft 362 kts 246°
2026-05-04 18:18 33.87063 -119.15919 13411 ft 365 kts 246°
2026-05-04 18:18 33.86036 -119.18726 13889 ft 368 kts 246°
2026-05-04 18:18 33.85002 -119.21560 14382 ft 370 kts 246°
2026-05-04 18:19 33.82954 -119.27176 15519 ft 368 kts 246°
2026-05-04 18:19 33.81924 -119.29995 16061 ft 368 kts 246°
2026-05-04 18:19 33.80883 -119.32821 16559 ft 367 kts 244°
2026-05-04 18:20 33.79495 -119.35409 16892 ft 372 kts 228°
2026-05-04 18:20 33.77539 -119.37463 17305 ft 374 kts 220°
2026-05-04 18:20 33.75470 -119.39378 17769 ft 376 kts 220°
2026-05-04 18:20 33.73389 -119.41294 18293 ft 376 kts 220°
2026-05-04 18:21 33.71312 -119.43210 18754 ft 376 kts 220°
2026-05-04 18:21 33.69237 -119.45131 19197 ft 376 kts 220°
2026-05-04 18:21 33.67308 -119.46923 19595 ft 377 kts 220°
2026-05-04 18:21 33.65203 -119.48883 20022 ft 377 kts 220°
2026-05-04 18:22 33.63127 -119.50821 20439 ft 378 kts 220°
2026-05-04 18:22 33.61053 -119.52758 20853 ft 378 kts 220°
2026-05-04 18:22 33.58972 -119.54702 21260 ft 379 kts 220°
2026-05-04 18:22 33.56887 -119.56649 21661 ft 380 kts 220°
2026-05-04 18:23 33.54824 -119.58575 22073 ft 381 kts 220°
2026-05-04 18:23 33.52733 -119.60526 22468 ft 381 kts 220°
2026-05-04 18:23 33.50640 -119.62478 22861 ft 382 kts 220°
2026-05-04 18:23 33.48532 -119.64443 23257 ft 383 kts 220°
2026-05-04 18:24 33.46424 -119.66406 23648 ft 384 kts 220°
2026-05-04 18:24 33.44313 -119.68372 23975 ft 385 kts 220°
2026-05-04 18:24 33.42196 -119.70340 24316 ft 385 kts 220°
2026-05-04 18:24 33.40081 -119.72306 24659 ft 385 kts 220°
2026-05-04 18:25 33.37963 -119.74274 25012 ft 385 kts 220°
2026-05-04 18:25 33.35850 -119.76235 25338 ft 385 kts 220°
2026-05-04 18:25 33.33730 -119.78203 25647 ft 386 kts 220°
2026-05-04 18:25 33.31611 -119.80168 25973 ft 386 kts 220°
2026-05-04 18:26 33.29488 -119.82135 26288 ft 386 kts 220°
2026-05-04 18:26 33.27363 -119.84103 26599 ft 387 kts 220°
2026-05-04 18:26 33.25237 -119.86071 26902 ft 387 kts 220°
2026-05-04 18:26 33.23105 -119.88043 27205 ft 387 kts 220°
2026-05-04 18:27 33.20972 -119.90014 27515 ft 388 kts 220°
2026-05-04 18:27 33.18865 -119.91960 27808 ft 388 kts 220°
2026-05-04 18:27 33.16728 -119.93933 28004 ft 390 kts 220°
2026-05-04 18:27 33.14584 -119.95912 28040 ft 390 kts 220°
2026-05-04 18:28 33.10266 -119.99892 28092 ft 395 kts 220°
2026-05-04 18:28 33.06625 -120.03245 28100 ft 400 kts 220°
2026-05-04 18:29 33.02183 -120.07330 28143 ft 407 kts 220°
2026-05-04 18:29 32.97662 -120.11482 28373 ft 411 kts 220°
2026-05-04 18:30 32.93138 -120.15629 28921 ft 408 kts 220°
2026-05-04 18:30 32.90895 -120.17682 29268 ft 405 kts 220°
2026-05-04 18:30 32.88672 -120.19717 29574 ft 402 kts 220°
2026-05-04 18:31 32.86449 -120.21750 29867 ft 401 kts 220°
2026-05-04 18:31 32.84244 -120.23768 30124 ft 399 kts 220°
2026-05-04 18:31 32.82045 -120.25777 30337 ft 398 kts 220°
2026-05-04 18:31 32.79851 -120.27781 30548 ft 397 kts 220°
2026-05-04 18:32 32.77696 -120.29748 30728 ft 395 kts 220°
2026-05-04 18:32 32.75515 -120.31738 30930 ft 394 kts 220°
2026-05-04 18:32 32.73339 -120.33722 31102 ft 393 kts 220°
2026-05-04 18:32 32.71171 -120.35697 31280 ft 392 kts 219°
2026-05-04 18:33 32.69012 -120.37663 31434 ft 391 kts 219°
2026-05-04 18:33 32.66858 -120.39624 31571 ft 390 kts 219°
2026-05-04 18:33 32.64701 -120.41586 31636 ft 391 kts 219°
2026-05-04 18:34 32.60366 -120.45525 31791 ft 393 kts 219°
2026-05-04 18:34 32.56027 -120.49461 31958 ft 393 kts 219°
2026-05-04 18:35 32.51676 -120.53405 32077 ft 394 kts 219°